User: anonymous   Login
Location: Mohawk View
(42.7837°N, 73.7885°W)
Time: 10:56:24
(UTC+00:00)
Language:

ATLAS CENTAUR R/B - Orbit

View from above orbital plane
View from above orbital plane
View from above satellite
View from above satellite

Ground track
Ground track

The orbit data is extracted from the following two-line orbital elements,

1 38770U 12048N   21264.78583911 0.00001500  00000-0  94753-4 0    08
2 38770  64.6555 145.0538 0160928 340.7896  19.2104 14.98615559    07
Epoch (UTC): 21 September 2021 18:51:36
Eccentricity: 0.0160928
inclination: 64.6555°
perigee height: 459 km
apogee height: 683 km
right ascension of ascending node: 145.0538°
argument of perigee: 340.7896°
revolutions per day: 14.98615559
mean anomaly at epoch: 19.2104°
orbit number at epoch: 0

The dashed part of the orbit path shows where the satellite is in the earth's shadow,  

DLR